Location: Grand Mazuras
(45.9128°N, 1.7636°E)
Time: 06:42:00
(UTC+00:00)

NOSS 3-4 (A) - Pass Details

Date: 18 April 2021
Orbit: 872 x 1340 km, 63.4° (Epoch: 06 May)

Event Time Altitude Azimuth Distance (km) Brightness Sun altitude
Rises 19:46:03 0° 232° (SW) 3,457 6.7 -10.8°
Reaches altitude 10° 19:48:31 10° 236° (WSW) 2,537 6.1 -11.1°
Maximum altitude 19:54:16 57° 315° (NW) 1,076 4.1 -12.0°
Drops below altitude 10° 20:00:30 10° 34° (NE) 2,746 5.8 -12.9°
Sets 20:03:16 0° 39° (NE) 3,765 6.5 -13.4°
